This is the latest recevied weather packets stored in our database for station/object KC0SIQ-13. If no packets are shown the sender has not sent any weather packets the latest 10 day(s).
| Time | Temp. | Humidity | Pressure | Rain* | Wind** | Luminosity | Snow |
|---|---|---|---|---|---|---|---|
| 1777857540 | 20° C | 25% | 1008.1 hPa | 0 mm | - | 19 W/m² | - |
| 1777857237 | 20° C | 26% | 1007.8 hPa | 0 mm | - | 24 W/m² | - |
| 1777856932 | 20° C | 25% | 1008.3 hPa | 0 mm | - | 23 W/m² | - |
| 1777856628 | 20° C | 25% | 1008.2 hPa | 0 mm | - | 23 W/m² | - |
| 1777856325 | 20° C | 25% | 1008.2 hPa | 0 mm | - | 21 W/m² | - |
| 1777856022 | 20.56° C | 24% | 1008.4 hPa | 0 mm | - | 23 W/m² | - |
| 1777855719 | 20.56° C | 24% | 1008.1 hPa | 0 mm | - | 24 W/m² | - |
| 1777855417 | 20.56° C | 23% | 1008.4 hPa | 0 mm | - | 28 W/m² | - |
| 1777855113 | 21.11° C | 22% | 1008.3 hPa | 0 mm | - | 35 W/m² | - |
| 1777854810 | 21.11° C | 23% | 1008.2 hPa | 0 mm | - | 42 W/m² | - |
| 1777854507 | 21.11° C | 23% | 1008.3 hPa | 0 mm | - | 46 W/m² | - |
| 1777854204 | 21.11° C | 24% | 1008.4 hPa | 0 mm | - | 50 W/m² | - |
| 1777853901 | 21.11° C | 22% | 1008.4 hPa | 0 mm | - | 56 W/m² | - |
| 1777853598 | 21.67° C | 22% | 1008.2 hPa | 0 mm | - | 61 W/m² | - |
| 1777853295 | 21.67° C | 22% | 1008.4 hPa | 0 mm | - | 71 W/m² | - |
| 1777852992 | 21.11° C | 21% | 1008.3 hPa | 0 mm | - | 73 W/m² | - |
| 1777852690 | 21.67° C | 21% | 1008.3 hPa | 0 mm | - | 64 W/m² | - |
| 1777852387 | 21.67° C | 19% | 1008.5 hPa | 0 mm | - | 57 W/m² | - |
| 1777852084 | 21.67° C | 19% | 1008.5 hPa | 0 mm | - | 56 W/m² | - |
| 1777851783 | 21.67° C | 20% | 1008.7 hPa | 0 mm | - | 59 W/m² | - |
| 1777851480 | 21.67° C | 19% | 1008.7 hPa | 0 mm | - | 61 W/m² | - |
| 1777851175 | 21.67° C | 19% | 1008.5 hPa | 0 mm | - | 65 W/m² | - |
| 1777850872 | 21.67° C | 19% | 1008.7 hPa | 0 mm | - | 70 W/m² | - |
| 1777850570 | 21.67° C | 19% | 1008.7 hPa | 0 mm | - | 71 W/m² | - |
| 1777850268 | 22.22° C | 19% | 1008.5 hPa | 0 mm | - | 70 W/m² | - |
* Rain latest hour (hover to see other rain measurements)
** Current wind speed in m/s (hover to see current wind gust speed)